Time,TemperatureF,DewpointF,PressureIn,WindDirection,WindDirectionDegrees,WindSpeedMPH,WindSpeedGustMPH,Humidity,HourlyPrecipIn,Conditions,Clouds,dailyrainin,SolarRadiationWatts/m^2,SoftwareType,DateUTC
2013-05-14 00:03:00,52.7,-99.9,29.97,West,271,1.0,6.0,0,0.00,,,0.00,0,weatherlink.com 1.10,2013-05-14 07:03:00,
2013-05-14 00:18:00,52.8,-99.9,29.96,WNW,288,4.0,7.0,0,0.00,,,0.00,0,weatherlink.com 1.10,2013-05-14 07:18:00,
2013-05-14 00:33:00,52.8,-99.9,29.97,WSW,256,5.0,8.0,0,0.00,,,0.00,0,weatherlink.com 1.10,2013-05-14 07:33:00,
2013-05-14 00:48:00,52.8,-99.9,29.97,West,270,1.0,9.0,0,0.00,,,0.00,0,weatherlink.com 1.10,2013-05-14 07:48:00,
2013-05-14 01:03:00,52.8,-99.9,29.97,West,277,1.0,11.0,0,0.00,,,0.00,0,weatherlink.com 1.10,2013-05-14 08:03:00,
2013-05-14 01:18:00,52.7,-99.9,29.96,NW,306,6.0,12.0,0,0.00,,,0.00,0,weatherlink.com 1.10,2013-05-14 08:18:00,
2013-05-14 01:33:00,52.8,-99.9,29.96,West,273,4.0,11.0,0,0.00,,,0.00,0,weatherlink.com 1.10,2013-05-14 08:33:00,
2013-05-14 01:48:00,52.8,-99.9,29.95,NNW,343,4.0,13.0,0,0.00,,,0.00,0,weatherlink.com 1.10,2013-05-14 08:48:00,
2013-05-14 02:03:00,52.4,-99.9,29.96,NNW,341,1.0,8.0,0,0.00,,,0.00,0,weatherlink.com 1.10,2013-05-14 09:03:00,
2013-05-14 02:19:00,52.3,-99.9,29.95,North,350,1.0,8.0,0,0.00,,,0.00,0,weatherlink.com 1.10,2013-05-14 09:19:00,
2013-05-14 02:34:00,52.3,-99.9,29.95,NW,313,6.0,12.0,0,0.00,,,0.00,0,weatherlink.com 1.10,2013-05-14 09:34:00,
2013-05-14 02:49:00,52.4,-99.9,29.94,WNW,300,14.0,19.0,0,0.00,,,0.00,0,weatherlink.com 1.10,2013-05-14 09:49:00,
2013-05-14 03:04:00,52.3,-99.9,29.95,NNW,338,5.0,11.0,0,0.00,,,0.00,0,weatherlink.com 1.10,2013-05-14 10:04:00,
2013-05-14 03:19:00,52.3,-99.9,29.95,North,355,9.0,15.0,0,0.00,,,0.00,0,weatherlink.com 1.10,2013-05-14 10:19:00,
2013-05-14 03:34:00,52.2,-99.9,29.94,NNW,332,7.0,15.0,0,0.00,,,0.00,0,weatherlink.com 1.10,2013-05-14 10:34:00,
2013-05-14 03:49:00,52.1,-99.9,29.94,WNW,289,5.0,11.0,0,0.00,,,0.00,0,weatherlink.com 1.10,2013-05-14 10:49:00,
2013-05-14 04:04:00,52.0,-99.9,29.94,NNW,332,4.0,12.0,0,0.00,,,0.00,0,weatherlink.com 1.10,2013-05-14 11:04:00,
2013-05-14 04:19:00,52.0,-99.9,29.94,WNW,292,3.0,16.0,0,0.00,,,0.00,0,weatherlink.com 1.10,2013-05-14 11:19:00,
2013-05-14 04:34:00,52.0,-99.9,29.94,NW,309,5.0,14.0,0,0.00,,,0.00,0,weatherlink.com 1.10,2013-05-14 11:34:00,
2013-05-14 04:49:00,51.9,-99.9,29.94,WNW,295,5.0,11.0,0,0.00,,,0.00,0,weatherlink.com 1.10,2013-05-14 11:49:00,
2013-05-14 05:04:00,51.9,-99.9,29.94,WNW,292,4.0,12.0,0,0.00,,,0.00,0,weatherlink.com 1.10,2013-05-14 12:04:00,
2013-05-14 05:19:00,51.9,-99.9,29.94,North,360,5.0,13.0,0,0.00,,,0.00,0,weatherlink.com 1.10,2013-05-14 12:19:00,
2013-05-14 05:34:00,52.0,-99.9,29.95,NW,304,5.0,18.0,0,0.00,,,0.00,0,weatherlink.com 1.10,2013-05-14 12:34:00,
2013-05-14 05:50:00,52.0,-99.9,29.95,West,280,1.0,8.0,0,0.00,,,0.00,0,weatherlink.com 1.10,2013-05-14 12:50:00,
2013-05-14 06:05:00,51.9,-99.9,29.94,NW,320,4.0,12.0,0,0.00,,,0.00,7,weatherlink.com 1.10,2013-05-14 13:05:00,
2013-05-14 06:20:00,51.9,-99.9,29.95,WNW,298,5.0,11.0,0,0.00,,,0.00,16,weatherlink.com 1.10,2013-05-14 13:20:00,
2013-05-14 06:35:00,52.0,-99.9,29.95,WNW,298,6.0,7.0,0,0.00,,,0.00,28,weatherlink.com 1.10,2013-05-14 13:35:00,
2013-05-14 07:05:00,52.6,-99.9,29.96,NW,321,8.0,16.0,0,0.00,,,0.00,121,weatherlink.com 1.10,2013-05-14 14:05:00,
2013-05-14 07:20:00,53.5,-99.9,29.96,West,275,7.0,12.0,0,0.00,,,0.00,181,weatherlink.com 1.10,2013-05-14 14:20:00,
2013-05-14 07:35:00,54.0,-99.9,29.95,WNW,290,6.0,14.0,0,0.00,,,0.00,230,weatherlink.com 1.10,2013-05-14 14:35:00,
2013-05-14 07:50:00,54.9,-99.9,29.95,North,5,4.0,15.0,0,0.00,,,0.00,283,weatherlink.com 1.10,2013-05-14 14:50:00,
2013-05-14 08:05:00,55.0,-99.9,29.96,NNW,336,7.0,13.0,0,0.00,,,0.00,334,weatherlink.com 1.10,2013-05-14 15:05:00,
2013-05-14 08:20:00,56.1,-99.9,29.96,West,281,13.0,15.0,0,0.00,,,0.00,387,weatherlink.com 1.10,2013-05-14 15:20:00,
2013-05-14 08:35:00,55.7,-99.9,29.96,WNW,302,15.0,18.0,0,0.00,,,0.00,434,weatherlink.com 1.10,2013-05-14 15:35:00,
2013-05-14 08:50:00,55.8,-99.9,29.96,NW,319,18.0,23.0,0,0.00,,,0.00,483,weatherlink.com 1.10,2013-05-14 15:50:00,
2013-05-14 09:06:00,55.5,-99.9,29.96,NW,312,22.0,25.0,0,0.00,,,0.00,533,weatherlink.com 1.10,2013-05-14 16:06:00,
2013-05-14 09:21:00,55.9,-99.9,29.96,WNW,289,15.0,20.0,0,0.00,,,0.00,578,weatherlink.com 1.10,2013-05-14 16:21:00,
2013-05-14 09:36:00,55.7,-99.9,29.96,WNW,287,7.0,20.0,0,0.00,,,0.00,622,weatherlink.com 1.10,2013-05-14 16:36:00,
2013-05-14 09:51:00,55.8,-99.9,29.96,North,5,6.0,20.0,0,0.00,,,0.00,668,weatherlink.com 1.10,2013-05-14 16:51:00,
2013-05-14 10:06:00,56.9,-99.9,29.96,WNW,289,8.0,21.0,0,0.00,,,0.00,673,weatherlink.com 1.10,2013-05-14 17:06:00,
2013-05-14 10:21:00,56.9,-99.9,29.96,WNW,293,5.0,19.0,0,0.00,,,0.00,733,weatherlink.com 1.10,2013-05-14 17:21:00,
2013-05-14 10:36:00,57.6,-99.9,29.96,West,259,11.0,19.0,0,0.00,,,0.00,666,weatherlink.com 1.10,2013-05-14 17:36:00,
2013-05-14 10:51:00,58.4,-43.0,29.96,WNW,282,13.0,19.0,1,0.00,,,0.00,592,weatherlink.com 1.10,2013-05-14 17:51:00,
2013-05-14 11:06:00,57.3,-99.9,29.97,NW,306,11.0,21.0,0,0.00,,,0.00,835,weatherlink.com 1.10,2013-05-14 18:06:00,
2013-05-14 11:21:00,58.6,-99.9,29.98,WNW,295,7.0,21.0,0,0.00,,,0.00,868,weatherlink.com 1.10,2013-05-14 18:21:00,
2013-05-14 11:36:00,58.1,-99.9,29.98,WNW,296,12.0,21.0,0,0.00,,,0.00,751,weatherlink.com 1.10,2013-05-14 18:36:00,
2013-05-14 11:51:00,58.1,-99.9,29.97,WNW,284,7.0,21.0,0,0.00,,,0.00,912,weatherlink.com 1.10,2013-05-14 18:51:00,
2013-05-14 12:06:00,58.7,-99.9,29.97,SSW,212,2.0,19.0,0,0.00,,,0.00,747,weatherlink.com 1.10,2013-05-14 19:06:00,
2013-05-14 12:21:00,58.4,-99.9,29.98,WNW,301,14.0,18.0,0,0.00,,,0.00,679,weatherlink.com 1.10,2013-05-14 19:21:00,
2013-05-14 12:37:00,58.1,-99.9,29.97,WNW,286,7.0,18.0,0,0.00,,,0.00,954,weatherlink.com 1.10,2013-05-14 19:37:00,
2013-05-14 12:52:00,58.0,-31.0,29.97,WNW,290,10.0,24.0,2,0.00,,,0.00,960,weatherlink.com 1.10,2013-05-14 19:52:00,
2013-05-14 13:07:00,58.7,2.0,29.97,West,280,18.0,22.0,10,0.00,,,0.00,962,weatherlink.com 1.10,2013-05-14 20:07:00,
2013-05-14 13:22:00,59.0,4.0,29.97,WNW,298,10.0,20.0,11,0.00,,,0.00,953,weatherlink.com 1.10,2013-05-14 20:22:00,
2013-05-14 13:37:00,60.0,13.0,29.97,WNW,302,15.0,22.0,16,0.00,,,0.00,933,weatherlink.com 1.10,2013-05-14 20:37:00,
2013-05-14 13:52:00,60.6,22.0,29.97,WNW,293,9.0,23.0,23,0.00,,,0.00,942,weatherlink.com 1.10,2013-05-14 20:52:00,
2013-05-14 14:07:00,60.7,31.0,29.96,NNW,336,7.0,21.0,33,0.00,,,0.00,918,weatherlink.com 1.10,2013-05-14 21:07:00,
2013-05-14 14:22:00,60.5,23.0,29.96,NW,321,7.0,19.0,24,0.00,,,0.00,907,weatherlink.com 1.10,2013-05-14 21:22:00,
2013-05-14 14:37:00,59.5,22.0,29.96,WNW,290,10.0,20.0,24,0.00,,,0.00,888,weatherlink.com 1.10,2013-05-14 21:37:00,
2013-05-14 14:52:00,59.9,32.0,29.95,NW,312,18.0,24.0,35,0.00,,,0.00,870,weatherlink.com 1.10,2013-05-14 21:52:00,
2013-05-14 15:07:00,59.1,24.0,29.94,NW,311,26.0,31.0,26,0.00,,,0.00,838,weatherlink.com 1.10,2013-05-14 22:07:00,
2013-05-14 15:22:00,59.7,25.0,29.95,NNW,346,16.0,27.0,26,0.00,,,0.00,807,weatherlink.com 1.10,2013-05-14 22:22:00,
2013-05-14 15:37:00,60.4,33.0,29.95,NW,325,13.0,26.0,36,0.00,,,0.00,775,weatherlink.com 1.10,2013-05-14 22:37:00,
2013-05-14 15:53:00,61.0,34.0,29.95,NW,320,9.0,19.0,36,0.00,,,0.00,738,weatherlink.com 1.10,2013-05-14 22:53:00,
2013-05-14 16:08:00,60.0,29.0,29.95,NW,319,6.0,21.0,31,0.00,,,0.00,696,weatherlink.com 1.10,2013-05-14 23:08:00,
2013-05-14 16:23:00,59.8,28.0,29.95,North,5,7.0,21.0,30,0.00,,,0.00,656,weatherlink.com 1.10,2013-05-14 23:23:00,
2013-05-14 16:38:00,59.0,25.0,29.95,NW,318,10.0,26.0,27,0.00,,,0.00,608,weatherlink.com 1.10,2013-05-14 23:38:00,
2013-05-14 16:53:00,58.7,16.0,29.95,WNW,296,9.0,27.0,19,0.00,,,0.00,580,weatherlink.com 1.10,2013-05-14 23:53:00,
2013-05-14 17:08:00,57.9,1.0,29.95,ENE,63,10.0,27.0,10,0.00,,,0.00,519,weatherlink.com 1.10,2013-05-15 00:08:00,
2013-05-14 17:23:00,58.0,7.0,29.95,NNW,331,4.0,26.0,13,0.00,,,0.00,469,weatherlink.com 1.10,2013-05-15 00:23:00,
2013-05-14 17:38:00,57.8,3.0,29.95,West,279,16.0,23.0,11,0.00,,,0.00,424,weatherlink.com 1.10,2013-05-15 00:38:00,
2013-05-14 17:53:00,57.4,8.0,29.95,WNW,283,15.0,29.0,14,0.00,,,0.00,373,weatherlink.com 1.10,2013-05-15 00:53:00,
2013-05-14 18:08:00,57.1,-14.0,29.95,WNW,301,16.0,27.0,5,0.00,,,0.00,322,weatherlink.com 1.10,2013-05-15 01:08:00,
2013-05-14 18:23:00,56.6,-2.0,29.95,NW,315,6.0,26.0,9,0.00,,,0.00,276,weatherlink.com 1.10,2013-05-15 01:23:00,
2013-05-14 18:38:00,56.3,-19.0,29.95,WNW,285,5.0,23.0,4,0.00,,,0.00,223,weatherlink.com 1.10,2013-05-15 01:38:00,
2013-05-14 18:53:00,55.9,-19.0,29.95,NW,311,11.0,22.0,4,0.00,,,0.00,169,weatherlink.com 1.10,2013-05-15 01:53:00,
2013-05-14 19:08:00,55.7,-99.9,29.95,WNW,292,7.0,19.0,0,0.00,,,0.00,118,weatherlink.com 1.10,2013-05-15 02:08:00,
2013-05-14 19:24:00,55.5,-99.9,29.95,West,273,9.0,22.0,0,0.00,,,0.00,74,weatherlink.com 1.10,2013-05-15 02:24:00,
2013-05-14 19:39:00,54.9,-99.9,29.95,NW,304,18.0,21.0,0,0.00,,,0.00,40,weatherlink.com 1.10,2013-05-15 02:39:00,
2013-05-14 19:54:00,54.5,-99.9,29.95,WNW,300,13.0,23.0,0,0.00,,,0.00,21,weatherlink.com 1.10,2013-05-15 02:54:00,
2013-05-14 20:09:00,53.7,-99.9,29.95,West,277,10.0,20.0,0,0.00,,,0.00,9,weatherlink.com 1.10,2013-05-15 03:09:00,
2013-05-14 20:24:00,53.3,-99.9,29.96,West,271,5.0,23.0,0,0.00,,,0.00,0,weatherlink.com 1.10,2013-05-15 03:24:00,
2013-05-14 20:39:00,53.5,-99.9,29.97,NW,305,14.0,22.0,0,0.00,,,0.00,0,weatherlink.com 1.10,2013-05-15 03:39:00,
2013-05-14 20:54:00,53.3,-99.9,29.97,NW,307,9.0,23.0,0,0.00,,,0.00,0,weatherlink.com 1.10,2013-05-15 03:54:00,
2013-05-14 21:09:00,53.0,-99.9,29.98,WNW,300,12.0,20.0,0,0.00,,,0.00,0,weatherlink.com 1.10,2013-05-15 04:09:00,
2013-05-14 21:24:00,52.7,-99.9,29.98,WNW,296,12.0,22.0,0,0.00,,,0.00,0,weatherlink.com 1.10,2013-05-15 04:24:00,
2013-05-14 21:39:00,52.7,-99.9,29.98,WNW,284,13.0,24.0,0,0.00,,,0.00,0,weatherlink.com 1.10,2013-05-15 04:39:00,
2013-05-14 21:54:00,52.6,-99.9,29.99,West,281,11.0,23.0,0,0.00,,,0.00,0,weatherlink.com 1.10,2013-05-15 04:54:00,
2013-05-14 22:09:00,52.5,-99.9,30.00,West,265,8.0,26.0,0,0.00,,,0.00,0,weatherlink.com 1.10,2013-05-15 05:09:00,
2013-05-14 22:24:00,52.4,-99.9,30.00,WNW,288,11.0,26.0,0,0.00,,,0.00,0,weatherlink.com 1.10,2013-05-15 05:24:00,
2013-05-14 22:39:00,52.2,-99.9,30.00,WNW,298,19.0,24.0,0,0.00,,,0.00,0,weatherlink.com 1.10,2013-05-15 05:39:00,
2013-05-14 22:55:00,52.1,-99.9,30.00,NW,321,10.0,29.0,0,0.00,,,0.00,0,weatherlink.com 1.10,2013-05-15 05:55:00,
2013-05-14 23:10:00,51.9,-99.9,30.00,WNW,303,14.0,25.0,0,0.00,,,0.00,0,weatherlink.com 1.10,2013-05-15 06:10:00,
2013-05-14 23:25:00,51.7,-99.9,30.00,WNW,290,13.0,25.0,0,0.00,,,0.00,0,weatherlink.com 1.10,2013-05-15 06:25:00,
2013-05-14 23:40:00,51.5,-99.9,30.00,NW,304,15.0,20.0,0,0.00,,,0.00,0,weatherlink.com 1.10,2013-05-15 06:40:00,
2013-05-14 23:55:00,51.4,-99.9,30.01,West,275,13.0,22.0,0,0.00,,,0.00,0,weatherlink.com 1.10,2013-05-15 06:55:00,